Location: Castillon
(43.0896°N, 0.2156°E)
Time: 02:45:56
(UTC+00:00)

Cosmos 1331 Rocket - Pass Details

Date: 16 June 2021
Orbit: 749 x 778 km, 74.0° (Epoch: 04 August)

Event Time Altitude Azimuth Distance (km) Brightness Sun altitude
Exits shadow 21:22:12 14° 180° (S) 2,013 5.7 -14.3°
Maximum altitude 21:26:32 57° 105° (ESE) 904 4.1 -14.7°
Drops below altitude 10° 21:31:42 10° 28° (NNE) 2,323 6.8 -15.3°
Sets 21:34:07 0° 25° (NNE) 3,258 7.7 -15.5°
